This demonstration page uses our WeatherBlox Daily Observations layout. Learn more.

Left ArrowRight Arrow

Hourly Observations for October 7, 2022

Temp ( °F °C ) Dew Point ( °F °C ) Humidity (%) Winds ( mph kmh ) Pressure ( in mb ) Visibility ( mi km ) Precip ( " mm )
12:53 am 00:53 Clear 63 17.2 46 7.8 54 54 Calm 30.03 1017 10 16 0.00 0.00
1:53 am 01:53 Clear 62 16.7 46 7.8 56 56 Calm 30.03 1017 10 16 0.00 0.00
2:53 am 02:53 Clear 61 16.1 47 8.3 60 60 Calm 30.04 1017 10 16 0.00 0.00
3:53 am 03:53 Clear 60 15.6 46 7.8 60 60 Calm 30.04 1017 10 16 0.00 0.00
4:53 am 04:53 Clear 58 14.4 46 7.8 65 65 N 3 6 30.04 1017 10 16 0.00 0.00
5:53 am 05:53 Clear 57 13.9 45 7.2 64 64 Calm 30.05 1018 10 16 0.00 0.00
6:53 am 06:53 Clear 56 13.3 46 7.8 69 69 Calm 30.06 1018 10 16 0.00 0.00
7:53 am 07:53 Sunny 58 14.4 46 7.8 65 65 Calm 30.07 1018 10 16 0.00 0.00
8:53 am 08:53 Sunny 68 20 47 8.3 47 47 Calm 30.07 1018 10 16 0.00 0.00
9:53 am 09:53 Sunny 77 25 43 6.1 30 30 N 3 6 30.07 1018 10 16 0.00 0.00
10:53 am 10:53 Sunny 82 27.8 42 5.6 24 24 NNW 5 7 30.05 1018 10 16 0.00 0.00
11:53 am 11:53 Sunny 87 30.6 41 5 20 20 VRB 3 6 30.04 1017 10 16 0.00 0.00
12:53 pm 12:53 Sunny 91 32.8 40 4.4 17 17 Calm 30.01 1016 10 16 0.00 0.00
1:53 pm 13:53 Sunny 94 34.4 33 0.6 12 12 VRB 3 6 29.98 1015 10 16 0.00 0.00
2:53 pm 14:53 Sunny 96 35.6 33 0.6 11 11 VRB 5 7 29.96 1015 10 16 0.00 0.00
3:53 pm 15:53 Sunny 97 36.1 27 -2.8 8 8 Calm 29.95 1014 10 16 0.00 0.00
4:53 pm 16:53 Sunny 97 36.1 32 0 10 10 S 7 11 29.94 1014 10 16 0.00 0.00
5:53 pm 17:53 Sunny 95 35 30 -1.1 10 10 SSE 5 7 29.93 1014 10 16 0.00 0.00
6:53 pm 18:53 Clear 88 31.1 36 2.2 16 16 S 3 6 29.95 1014 10 16 0.00 0.00
7:53 pm 19:53 Clear 81 27.2 37 2.8 21 21 SE 3 6 29.96 1015 10 16 0.00 0.00
8:53 pm 20:53 Clear 74 23.3 38 3.3 27 27 NE 6 9 29.98 1015 10 16 0.00 0.00
9:53 pm 21:53 Clear 73 22.8 39 3.9 29 29 Calm 29.99 1016 10 16 0.00 0.00
10:53 pm 22:53 Clear 69 20.6 39 3.9 33 33 NNW 5 7 30.00 1016 10 16 0.00 0.00
11:53 pm 23:53 Clear 67 19.4 39 3.9 36 36 Calm 30.00 1016 10 16 0.00 0.00

Powered by AerisWeather